Juneau, AK

1:29 AM AKST on November 22, 2017 (GMT -0900)
Juneau International

Weather History for PAJN - October, 2012

Change the Weather History Date:

Saturday, October 27, 2012

  Actual Average Record
Temperature  
Mean Temperature 28 °F 39 °F  
Max Temperature 33 °F 43 °F 55 °F (1965)
Min Temperature 22 °F 34 °F 12 °F (1971)
Degree Days  
Heating Degree Days 37 26  
Month to date heating degree days 670 591  
Moisture  
Dew Point 8 °F    
Average Humidity 51    
Maximum Humidity 68    
Minimum Humidity 33    
Precipitation  
Precipitation 0.00 in 0.24 in 2.01 in (2017)
Month to date precipitation 3.49 7.67  
Year to date precipitation 53.92 49.48  
Snow  
Snow 0.00 in 0.10 in 2.20 in (2001)
Month to date snowfall T 0.5  
Since 1 July snowfall T 0.5  
Snow Depth 0.00 in    
Sea Level Pressure  
Sea Level Pressure 30.03 in    
Wind  
Wind Speed 12 mph (ESE)    
Max Wind Speed 21 mph    
Max Gust Speed 30 mph    
Visibility 10 miles    
Events      
T = Trace of Precipitation, MM = Missing Value Source: NWS Daily Summary

Daily Weather History Graph

Daily Weather History Graph

Search for Another Location

Airport or City:

Trip Planner

Search our weather history database for the weather conditions in past years. The results will help you decide how hot, cold, wet, or windy it might be!

Date:

Astronomy

Oct. 27, 2012 Rise Set
Actual Time 8:03 AM AKDT 5:19 PM AKDT
Civil Twilight 7:21 AM AKDT 6:01 PM AKDT
Nautical Twilight 6:35 AM AKDT 6:48 PM AKDT
Astronomical Twilight 5:49 AM AKDT 7:33 PM AKDT
Moon 4:21 PM AKDT (10/27) 5:48 AM AKDT (10/27)
Length of Visible Light 10h 39m
Length of Day
9h 16m
Waxing Gibbous, 96% of the Moon is Illuminated
Oct 27
Waxing Gibbous
Oct 29
Full
Nov 6
Last Quarter
Nov 13
New
Nov 20
First Quarter

Hourly Weather History & Observations

Time (AKDT) Temp. Windchill Dew Point Humidity Pressure Visibility Wind Dir Wind Speed Gust Speed Precip Events Conditions
12:53 AM 21.9 °F - 12.9 °F 68% 30.15 in 10.0 mi Calm Calm - N/A   Clear
1:53 AM 27.0 °F 21.6 °F 10.0 °F 49% 30.14 in 10.0 mi SSE 4.6 mph - N/A   Clear
2:53 AM 28.0 °F 22.8 °F 10.9 °F 49% 30.12 in 10.0 mi NE 4.6 mph - N/A   Partly Cloudy
3:53 AM 28.0 °F 21.7 °F 12.0 °F 51% 30.10 in 10.0 mi ENE 5.8 mph - N/A   Clear
4:53 AM 26.1 °F 20.5 °F 12.0 °F 55% 30.08 in 10.0 mi East 4.6 mph - N/A   Clear
5:53 AM 30.0 °F 19.1 °F 8.1 °F 40% 30.07 in 10.0 mi ESE 15.0 mph 20.7 mph N/A   Clear
6:53 AM 28.9 °F 17.7 °F 10.0 °F 45% 30.06 in 10.0 mi East 15.0 mph - N/A   Clear
7:53 AM 28.9 °F 18.6 °F 9.0 °F 43% 30.06 in 10.0 mi ESE 12.7 mph - N/A   Partly Cloudy
8:53 AM 28.9 °F 17.7 °F 10.0 °F 45% 30.05 in 10.0 mi ESE 15.0 mph - N/A   Scattered Clouds
9:53 AM 30.0 °F 19.5 °F 7.0 °F 38% 30.04 in 10.0 mi SE 13.8 mph - N/A   Scattered Clouds
10:53 AM 30.9 °F 20.2 °F 7.0 °F 37% 30.03 in 10.0 mi ESE 15.0 mph 23.0 mph N/A   Scattered Clouds
11:53 AM 32.0 °F 21.2 °F 8.1 °F 37% 30.03 in 10.0 mi ESE 16.1 mph - N/A   Scattered Clouds
12:53 PM 33.1 °F 23.0 °F 8.1 °F 35% 30.01 in 10.0 mi ESE 15.0 mph - N/A   Partly Cloudy
1:53 PM 32.0 °F 20.8 °F 8.1 °F 37% 30.00 in 10.0 mi ESE 17.3 mph 21.9 mph N/A   Partly Cloudy
2:53 PM 32.0 °F 22.1 °F 7.0 °F 35% 29.99 in 10.0 mi SE 13.8 mph - N/A   Partly Cloudy
3:53 PM 30.9 °F 22.8 °F 7.0 °F 37% 29.97 in 10.0 mi SE 9.2 mph 21.9 mph N/A   Partly Cloudy
4:53 PM 30.0 °F 21.1 °F 7.0 °F 38% 29.96 in 10.0 mi ESE 10.4 mph - N/A   Clear
5:53 PM 28.0 °F 18.1 °F 7.0 °F 41% 29.96 in 10.0 mi ESE 11.5 mph - N/A   Clear
6:53 PM 28.0 °F 17.0 °F 8.1 °F 43% 29.96 in 10.0 mi ESE 13.8 mph - N/A   Clear
7:53 PM 27.0 °F 16.7 °F 7.0 °F 43% 29.96 in 10.0 mi SE 11.5 mph - N/A   Clear
8:53 PM 27.0 °F 15.2 °F 7.0 °F 43% 29.96 in 10.0 mi ESE 15.0 mph - N/A   Clear
9:53 PM 28.0 °F 15.7 °F 5.0 °F 38% 29.97 in 10.0 mi ESE 17.3 mph 20.7 mph N/A   Clear
10:53 PM 27.0 °F 16.1 °F 7.0 °F 43% 29.97 in 10.0 mi ESE 12.7 mph - N/A   Clear
11:53 PM 27.0 °F 15.6 °F 6.1 °F 41% 29.98 in 10.0 mi ESE 13.8 mph - N/A   Clear